Terminal Aerodrome Forecast
Issued by NWS Upton, NY

Home | Current Version | Previous Version | Text Only | Print | Product List | Glossary On
Versions: 1 2 3 4 5 6 7 8 9 10 11 12 13 14 15 16 17 18 19 20 21 22 23 24 25 26 27 28 29 30 31 32 33 34 35 36 37
000
FTUS41 KOKX 160500
TAFISP
TAF
KISP 160538Z 1606/1706 34015G23KT 6SM -RA SCT010 BKN025 OVC090
      TEMPO 1606/1609 3SM -SNPL BKN008
     FM160900 33018G28KT P6SM BKN025 BKN150
     FM161100 35020G30KT P6SM SCT030 SCT150
     FM161600 35016G26KT P6SM FEW040
     FM162200 36014KT P6SM SKC
     FM170200 03008KT P6SM SKC=

USA.gov is the U.S. government's official web portal to all federal, state and local government web resources and services.